Location: Litvinovka
(48.6667°N, 34.3500°E)
Time: 16:15:00
(UTC+00:00)

Cosmos 2218 Rocket - Pass Details

Date: 18 September 2020
Orbit: 957 x 1005 km, 82.9° (Epoch: 21 October)

Event Time Altitude Azimuth Distance (km) Brightness Sun altitude
Rises 23:31:19 0° 351° (N) 3,737 7.6 -34.1°
Reaches altitude 10° 23:33:51 10° 353° (N) 2,787 6.9 -33.9°
Enters shadow 23:39:21 66° 16° (NNE) 1,098 4.3 -33.3°
